User: anonymous   Login
Location: Dötzum
(52.0808°N, 9.8063°E)
Time: 20:05:11
(UTC+00:00)
Language:

Cosmos 1674 Rocket - Orbit

View from above orbital plane
View from above orbital plane
View from above satellite
View from above satellite

Ground track
Ground track

The orbit data is extracted from the following two-line orbital elements,

1 15945U 85069B   22229.32337105  .00000289  00000-0  31578-4 0  9990
2 15945  82.5300 165.4313 0019818 168.6101 191.5567 14.84248261979837
Epoch (UTC): 17 August 2022 07:45:39
Eccentricity: 0.0019818
inclination: 82.5300°
perigee height: 602 km
apogee height: 630 km
right ascension of ascending node: 165.4313°
argument of perigee: 168.6101°
revolutions per day: 14.84248261
mean anomaly at epoch: 191.5567°
orbit number at epoch: 97983

The dashed part of the orbit path shows where the satellite is in the earth's shadow,  

DLR